W2BP-13 Weather Reports


time (UTC)temp
F
wind
direction
speed
knots
gust
knots
rain 1hr
in
rain 24hr
in
rain mn
in
humidity
%
barometer
mb
20260505152533 69 169 0.9 1.7 0.00 0.00 0.00 58 1015.4
20260505151033 67 219 0.9 2.6 0.00 0.00 0.00 60 1015.4
20260505124032 59 180 0.0 0.9 0.00 0.00 0.00 77 1013.4
20260505122532 59 190 0.0 0.9 0.00 0.00 0.00 78 1013.4
20260505121032 59 210 0.0 0.0 0.00 0.00 0.00 77 1013.3
20260505115532 60 211 0.0 0.0 0.00 0.00 0.00 75 1013.0
20260505114032 61 199 0.0 0.0 0.00 0.00 0.00 73 1012.9
20260505112532 62 218 0.9 0.9 0.00 0.00 0.00 72 1012.8
20260505111032 62 207 0.0 0.0 0.00 0.00 0.00 72 1012.5
20260505101032 62 188 0.0 0.0 0.00 0.00 0.00 72 1012.0
20260505095532 62 173 0.0 0.9 0.00 0.00 0.00 72 1012.2
20260505094032 62 186 0.0 0.9 0.00 0.00 0.00 70 1011.9
20260505092532 63 188 0.0 0.9 0.00 0.00 0.00 70 1011.8
20260505091032 62 179 0.0 0.9 0.00 0.00 0.00 70 1011.7
20260505085532 63 181 0.0 0.0 0.00 0.00 0.00 69 1011.9
20260505084032 63 193 0.9 1.7 0.00 0.00 0.00 69 1011.8
20260505082532 63 181 0.0 0.0 0.00 0.00 0.00 68 1011.7
20260505081032 63 179 0.0 0.0 0.00 0.00 0.00 66 1011.5
20260505075532 63 195 0.0 0.9 0.00 0.00 0.00 66 1011.3
20260505074032 63 152 0.0 0.0 0.00 0.00 0.00 66 1011.2
20260505072532 63 146 0.0 0.0 0.00 0.00 0.00 67 1011.1
20260505071032 63 170 0.0 0.0 0.00 0.00 0.00 67 1011.1
20260505065532 64 173 0.0 0.0 0.00 0.00 0.00 66 1010.8
20260505064032 64 180 0.0 0.9 0.00 0.00 0.00 65 1010.7
20260505062532 64 175 0.0 0.0 0.00 0.00 0.00 63 1010.7
20260505061032 65 179 0.0 0.0 0.00 0.00 0.00 63 1010.4
20260505055532 67 154 0.0 0.0 0.00 0.00 0.00 55 1010.1
20260505054032 68 186 0.0 0.0 0.00 0.00 0.00 54 1010.2
20260505052532 68 190 0.0 0.0 0.00 0.00 0.00 52 1010.1
20260505051032 68 187 0.0 0.9 0.00 0.00 0.00 52 1009.9
20260505041032 73 195 0.9 0.9 0.00 0.00 0.00 39 1009.6
20260505035532 73 182 0.0 0.9 0.00 0.00 0.00 40 1009.4
20260505034032 74 210 1.7 2.6 0.00 0.00 0.00 39 1009.2
20260505032532 77 173 0.0 0.9 0.00 0.00 0.00 33 1009.1
20260505031032 78 199 0.9 1.7 0.00 0.00 0.00 33 1009.2
20260505025532 80 167 0.0 0.9 0.00 0.00 0.00 29 1009.2
20260505024032 83 171 0.0 0.0 0.00 0.00 0.00 25 1009.2
20260505022533 83 132 0.0 0.0 0.00 0.00 0.00 26 1009.1
20260505021032 83 132 0.0 0.0 0.00 0.00 0.00 25 1009.1
20260505015532 81 140 0.0 0.0 0.00 0.00 0.00 26 1009.1
20260505014033 91 171 0.0 0.0 0.00 0.00 0.00 18 1009.3
20260505012532 89 54 0.9 1.7 0.00 0.00 0.00 19 1009.2
20260505011032 91 145 0.0 0.9 0.00 0.00 0.00 20 1009.3
20260505005532 91 172 0.9 0.9 0.00 0.00 0.00 20 1009.5
20260505004032 91 175 0.0 0.9 0.00 0.00 0.00 18 1009.5
20260505002532 92 200 0.0 0.9 0.00 0.00 0.00 19 1009.6
20260505001032 91 225 0.0 0.9 0.00 0.00 0.00 17 1009.5
20260504235532 92 192 0.0 0.9 0.00 0.00 0.00 21 1009.6
20260504234032 92 203 0.0 0.0 0.00 0.00 0.00 20 1009.6
20260504232532 92 156 0.0 0.0 0.00 0.00 0.00 20 1009.9
20260504231032 92 190 1.7 2.6 0.00 0.00 0.00 20 1009.6
20260504225532 91 212 1.7 1.7 0.00 0.00 0.00 19 1010.1
20260504224032 91 185 0.0 0.0 0.00 0.00 0.00 20 1010.3
20260504222532 91 183 0.0 0.9 0.00 0.00 0.00 21 1010.3
20260504221032 91 232 0.9 0.9 0.00 0.00 0.00 21 1010.7
20260504215532 91 171 0.0 0.0 0.00 0.00 0.00 24 1010.7
20260504214032 90 177 2.6 3.5 0.00 0.00 0.00 19 1010.9
20260504212532 89 205 0.0 0.0 0.00 0.00 0.00 26 1011.5
20260504211032 89 219 0.9 1.7 0.00 0.00 0.00 26 1011.5
20260504205532 87 187 0.0 0.9 0.00 0.00 0.00 25 1011.7
20260504204033 87 230 0.0 0.9 0.00 0.00 0.00 25 1011.9
20260504202532 86 186 0.9 0.9 0.00 0.00 0.00 30 1012.0
20260504201032 85 228 0.9 1.7 0.00 0.00 0.00 29 1012.1
20260504195532 84 271 1.7 2.6 0.00 0.00 0.00 29 1012.2
20260504194032 83 165 0.0 0.9 0.00 0.00 0.00 34 1012.3
20260504192532 82 332 0.9 1.7 0.00 0.00 0.00 34 1012.3
20260504191033 81 219 0.9 1.7 0.00 0.00 0.00 35 1012.5
20260504185532 81 224 0.9 1.7 0.00 0.00 0.00 36 1012.6
20260504184032 80 169 0.0 0.0 0.00 0.00 0.00 39 1012.8
20260504182532 77 182 0.0 0.9 0.00 0.00 0.00 43 1012.6
20260504181032 77 191 1.7 1.7 0.00 0.00 0.00 42 1012.9
20260504175532 76 187 0.0 0.9 0.00 0.00 0.00 43 1013.1
20260504174032 75 177 0.9 1.7 0.00 0.00 0.00 44 1013.3
20260504172532 73 185 0.0 0.9 0.00 0.00 0.00 46 1013.4
20260504171032 72 324 0.9 1.7 0.00 0.00 0.00 46 1013.1